Flag for Spain Weather past 2 weeks in Almería, Spain

Now
55 °F

Cool.


Feels Like: 55 °F
Forecast: 60 / 75 °F
Wind: 3 mph from Northeast

Location: Almeria / Aeropuerto

Current Time: Mar 3, 2015 at 4:45:34 AM

Latest Report: Mar 3, 2015 at 2:00 AM


Visibility: N/A

Pressure: 30.24 "Hg

Humidity: 98%

Dew point: 55 °F

Location of AlmeríaLocation

Historic Weather in Almería — Graph

°F

Almería temperature yesterday

Maximum temperature yesterday: 64 °F (at 5:00 PM)
Minimum temperature yesterday: 50 °F (at 5:00 AM)
Average temperature yesterday: 57 °F

Past Weeks' High & Low Weather Summary

 TemperatureHumidityPressure
High71 °F (Feb 26, 11:00 AM)100% (Mar 2, 3:00 AM)30.38 "Hg (Mar 2, 3:00 AM)
Low47 °F (Feb 21, 6:00 AM)22% (Feb 24, 11:00 AM)29.68 "Hg (Feb 21, 4:00 PM)
Average59 °F65%30.14 "Hg
* Reported Feb 16 2:00 AM — Mar 3 2:00 AM, Almería, Weather by CustomWeather, © 2015

Note: Actual official high and low records may vary slightly from our data, if they occured in-between our weather recording intervals... More about our weather records

Advertising

Almería weather history for previous 24 hours

 ConditionsComfort  
Time TempWeatherWind HumidityBarometerVisibility
2:00 AM
Tue, Mar 3
55 °FCool.3 mph98%30.24 "HgN/A
1:00 AM56 °FCool.6 mph96%30.24 "HgN/A
12:00 AM56 °FCool.6 mph94%30.24 "HgN/A
11:00 PM
Mon, Mar 2
57 °FCool.5 mph93%30.23 "HgN/A
9:00 PM59 °FCool.1 mph91%30.21 "HgN/A
8:00 PM60 °FCool.1 mph91%30.21 "HgN/A
7:00 PM61 °FPassing clouds.1 mph86%30.20 "Hg16 mi
6:00 PM63 °FMild.2 mph83%30.20 "HgN/A
5:00 PM64 °FMild.2 mph82%30.20 "HgN/A
4:00 PM64 °FPassing clouds.2 mph83%30.21 "Hg12 mi
3:00 PM64 °FMild.1 mph84%30.22 "HgN/A
2:00 PM61 °FCool.2 mph87%30.24 "HgN/A
1:00 PM59 °FFog.1 mph87%30.28 "Hg1 mi
12:00 PM60 °FCool.No wind87%30.29 "HgN/A
11:00 AM56 °FCool.2 mph96%30.30 "HgN/A
10:00 AM54 °FFog.No wind100%30.30 "Hg1 mi
9:00 AM52 °FCool.1 mph100%30.29 "HgN/A
8:00 AM51 °FCool.No wind100%30.26 "HgN/A
7:00 AM50 °FFog.No wind99%30.24 "Hg0 mi
6:00 AM52 °FCool.No wind99%30.24 "HgN/A
5:00 AM50 °FCool.No wind99%30.24 "HgN/A
4:00 AM54 °FCool.5 mph100%30.24 "HgN/A
Weather by CustomWeather, © 2015

See weather overviewHow to use our weather pages